Regional Weather Roundup
Issued by NWS Charleston, WV

Home | Current Version | Previous Version | Graphics & Text | Print | Product List | Glossary On
Versions: 1 2 3 4 5 6 7 8 9 10 11 12 13 14 15 16 17 18 19 20 21 22 23 24 25 26 27 28 29 30 31 32 33 34 35 36 37 38 39 40 41 42 43 44 45 46 47 48 49 50
000
ASUS41 KRLX 270210
RWRRLX
West Virginia Regional Weather Roundup
National Weather Service Charleston WV
1000 PM EDT SAT MAY 26 2018

Note: "fair" indicates few or no clouds below 12,000 feet with no
significant weather and/or obstructions to visibility.

WVZ003-270300-
Northern Panhandle of West Virginia

CITY           SKY/WX    TMP DP  RH WIND       PRES   REMARKS
WHEELING       LGT RAIN  69  67  93 SE3       29.90S
$$

WVZ009-270300-
Northwest West Virginia

CITY           SKY/WX    TMP DP  RH WIND       PRES   REMARKS
PARKERSBURG    FAIR      71  69  93 CALM      29.91R FOG
$$

WVZ006-270300-
Western West Virginia

CITY           SKY/WX    TMP DP  RH WIND       PRES   REMARKS
HUNTINGTON     FAIR      69  67  93 CALM      29.87S
$$

WVZ015-270300-
West Central West Virginia

CITY           SKY/WX    TMP DP  RH WIND       PRES   REMARKS
CHARLESTON     FOG       69  69 100 CALM      29.89R VSB 1/2
$$

WVZ022-031-270300-
North Central West Virginia

CITY           SKY/WX    TMP DP  RH WIND       PRES   REMARKS
CLARKSBURG     FAIR      72  65  78 SE3       29.91R
MORGANTOWN     FAIR      69  67  93 S3        29.91R
$$

WVZ025-035-042-045-270300-
Southern West Virginia

CITY           SKY/WX    TMP DP  RH WIND       PRES   REMARKS
BECKLEY        FAIR      70  63  78 CALM      29.98R
LOGAN          FAIR      72  68  88 CALM      29.92S
BLUEFIELD      MOCLDY    67  65  93 SW5       30.01R
LEWISBURG      FOG       68  67  98 CALM      29.99R VSB 1
$$

WVZ047-270300-
Northern Mountains of West Virginia

CITY           SKY/WX    TMP DP  RH WIND       PRES   REMARKS
ELKINS         FAIR      68  64  87 CALM      29.96R
$$

WVZ052-270300-
Eastern Panhandle of West Virginia

CITY           SKY/WX    TMP DP  RH WIND       PRES   REMARKS
MARTINSBURG    FAIR      72  68  87 S3        29.87R
PETERSBURG     CLOUDY    69  66  90 CALM      29.91R
$$



USA.gov is the U.S. government's official web portal to all federal, state and local government web resources and services.